Location: Gombori
(14.9797°N, 2.9419°W)
Time: 23:46:16
(UTC+00:00)

Helios 1A Rocket - Pass Details

Date: 29 July 2021
Orbit: 562 x 585 km, 98.3° (Epoch: 20 September)

Event Time Altitude Azimuth Distance (km) Brightness Sun altitude
Exits shadow 20:27:52 73° 351° (N) 591 2.9 -24.1°
Drops below altitude 10° 20:31:32 10° 348° (NNW) 1,861 6.0 -24.9°
Sets 20:33:40 0° 349° (NNW) 2,762 7.0 -25.3°
